| time (UTC) | temp F | wind direction | speed knots | gust knots | rain 1hr in | rain 24hr in | rain mn in | humidity % | barometer mb |
| 20260504070243 | 53 | 312 | 1.7 | 2.6 | 0.00 | 0.00 | 0.00 | 77 | 1018.7 |
| 20260504060122 | 54 | 314 | 0.9 | 3.5 | 0.00 | 0.01 | 0.00 | 73 | 1019.0 |
| 20260504050534 | 56 | 270 | 0.9 | 3.5 | 0.00 | 0.01 | 0.00 | 63 | 1019.0 |
| 20260504050237 | 57 | 275 | 0.9 | 4.3 | 0.00 | 0.01 | 0.00 | 62 | 1018.9 |
| 20260504045527 | 57 | 265 | 1.7 | 6.1 | 0.00 | 0.01 | 0.00 | 62 | 1018.8 |
| 20260504045040 | 57 | 273 | 1.7 | 6.1 | 0.00 | 0.01 | 0.00 | 62 | 1018.9 |
| 20260504044721 | 57 | 265 | 1.7 | 6.1 | 0.00 | 0.01 | 0.00 | 62 | 1018.7 |
| 20260504044030 | 57 | 235 | 0.9 | 3.5 | 0.00 | 0.01 | 0.00 | 62 | 1018.8 |
| 20260504043531 | 58 | 250 | 0.9 | 4.3 | 0.00 | 0.01 | 0.00 | 62 | 1018.6 |
| 20260504043208 | 58 | 230 | 0.9 | 4.3 | 0.00 | 0.01 | 0.00 | 62 | 1018.6 |
| 20260504042541 | 58 | 310 | 1.7 | 6.1 | 0.00 | 0.01 | 0.00 | 60 | 1018.8 |
| 20260504042040 | 59 | 276 | 2.6 | 8.7 | 0.00 | 0.01 | 0.00 | 59 | 1018.7 |
| 20260504041718 | 59 | 261 | 3.5 | 8.7 | 0.00 | 0.01 | 0.00 | 60 | 1019.0 |
| 20260504041041 | 59 | 298 | 2.6 | 7.0 | 0.00 | 0.01 | 0.00 | 60 | 1018.9 |
| 20260504040539 | 59 | 277 | 2.6 | 6.1 | 0.00 | 0.01 | 0.00 | 59 | 1018.9 |
| 20260504040211 | 59 | 304 | 0.9 | 7.0 | 0.00 | 0.01 | 0.00 | 59 | 1019.0 |
| 20260504035538 | 59 | 295 | 2.6 | 7.0 | 0.00 | 0.01 | 0.01 | 58 | 1018.9 |
| 20260504035026 | 59 | 275 | 3.5 | 7.0 | 0.00 | 0.01 | 0.01 | 58 | 1019.0 |
| 20260504034715 | 59 | 296 | 1.7 | 6.1 | 0.00 | 0.01 | 0.01 | 57 | 1018.9 |
| 20260504034034 | 60 | 273 | 1.7 | 6.1 | 0.00 | 0.01 | 0.01 | 57 | 1018.9 |
| 20260504033534 | 60 | 304 | 2.6 | 10.4 | 0.00 | 0.01 | 0.01 | 57 | 1018.9 |
| 20260504033155 | 60 | 274 | 2.6 | 10.4 | 0.00 | 0.01 | 0.01 | 56 | 1018.7 |
| 20260504032538 | 61 | 261 | 3.5 | 10.4 | 0.00 | 0.01 | 0.01 | 56 | 1018.8 |
| 20260504032039 | 61 | 291 | 3.5 | 10.4 | 0.00 | 0.01 | 0.01 | 56 | 1018.8 |
| 20260504031715 | 61 | 309 | 5.2 | 10.4 | 0.00 | 0.01 | 0.01 | 56 | 1018.8 |
| 20260504031025 | 61 | 294 | 5.2 | 9.6 | 0.00 | 0.01 | 0.01 | 56 | 1018.8 |
| 20260504030524 | 61 | 298 | 4.3 | 8.7 | 0.00 | 0.01 | 0.01 | 55 | 1018.9 |
| 20260504030226 | 61 | 295 | 2.6 | 7.8 | 0.00 | 0.01 | 0.01 | 57 | 1018.6 |
| 20260504025531 | 61 | 290 | 2.6 | 7.8 | 0.00 | 0.01 | 0.01 | 56 | 1018.8 |
| 20260504025025 | 61 | 231 | 2.6 | 7.0 | 0.00 | 0.01 | 0.01 | 57 | 1018.6 |
| 20260504024712 | 61 | 303 | 2.6 | 7.0 | 0.00 | 0.01 | 0.01 | 56 | 1018.7 |
| 20260504024037 | 60 | 309 | 1.7 | 4.3 | 0.00 | 0.01 | 0.01 | 57 | 1018.6 |
| 20260504023518 | 60 | 279 | 1.7 | 5.2 | 0.00 | 0.01 | 0.01 | 57 | 1018.8 |
| 20260504023209 | 60 | 289 | 0.9 | 5.2 | 0.00 | 0.01 | 0.01 | 57 | 1018.6 |
| 20260504022533 | 60 | 269 | 1.7 | 4.3 | 0.00 | 0.01 | 0.01 | 58 | 1018.5 |
| 20260504022040 | 60 | 287 | 1.7 | 4.3 | 0.00 | 0.01 | 0.01 | 61 | 1018.4 |
| 20260504021637 | 60 | 291 | 1.7 | 4.3 | 0.00 | 0.01 | 0.01 | 59 | 1018.5 |
| 20260504021031 | 61 | 279 | 0.0 | 1.7 | 0.00 | 0.01 | 0.01 | 61 | 1018.4 |
| 20260504020538 | 61 | 277 | 0.0 | 3.5 | 0.00 | 0.01 | 0.01 | 58 | 1018.3 |
| 20260504020207 | 61 | 277 | 0.9 | 3.5 | 0.00 | 0.01 | 0.01 | 55 | 1018.2 |
| 20260504015538 | 61 | 240 | 0.9 | 3.5 | 0.00 | 0.01 | 0.01 | 55 | 1018.3 |
| 20260504015036 | 61 | 261 | 0.9 | 3.5 | 0.00 | 0.01 | 0.01 | 55 | 1018.1 |
| 20260504014711 | 61 | 231 | 0.0 | 3.5 | 0.00 | 0.01 | 0.01 | 55 | 1017.9 |
| 20260504014042 | 61 | 259 | 0.9 | 4.3 | 0.00 | 0.01 | 0.01 | 55 | 1018.0 |
| 20260504013521 | 61 | 245 | 0.9 | 4.3 | 0.00 | 0.01 | 0.01 | 56 | 1017.9 |
| 20260504013209 | 62 | 229 | 0.9 | 4.3 | 0.00 | 0.01 | 0.01 | 56 | 1017.9 |
| 20260504012537 | 62 | 217 | 0.9 | 4.3 | 0.00 | 0.01 | 0.01 | 56 | 1017.8 |
| 20260504012041 | 62 | 216 | 1.7 | 4.3 | 0.00 | 0.01 | 0.01 | 55 | 1017.8 |
| 20260504011701 | 62 | 221 | 0.9 | 3.5 | 0.00 | 0.01 | 0.01 | 56 | 1017.7 |
| 20260504011039 | 62 | 223 | 0.9 | 2.6 | 0.00 | 0.01 | 0.01 | 56 | 1017.8 |
| 20260504010530 | 62 | 223 | 0.9 | 1.7 | 0.00 | 0.01 | 0.01 | 56 | 1017.8 |
| 20260504010217 | 63 | 223 | 0.0 | 1.7 | 0.00 | 0.01 | 0.01 | 55 | 1017.8 |
| 20260504005530 | 63 | 223 | 0.0 | 1.7 | 0.00 | 0.01 | 0.01 | 54 | 1017.7 |
| 20260504005031 | 63 | 223 | 0.9 | 2.6 | 0.00 | 0.01 | 0.01 | 53 | 1017.8 |
| 20260504004640 | 63 | 223 | 0.9 | 2.6 | 0.00 | 0.01 | 0.01 | 52 | 1017.5 |
| 20260504004040 | 64 | 214 | 0.9 | 2.6 | 0.00 | 0.01 | 0.01 | 51 | 1017.6 |
| 20260504003522 | 64 | 213 | 0.9 | 3.5 | 0.00 | 0.01 | 0.01 | 51 | 1017.5 |
| 20260504003155 | 64 | 213 | 0.9 | 2.6 | 0.00 | 0.01 | 0.01 | 50 | 1017.5 |
| 20260504002523 | 65 | 238 | 0.9 | 3.5 | 0.00 | 0.01 | 0.01 | 50 | 1017.5 |
| 20260504002029 | 65 | 238 | 0.9 | 3.5 | 0.00 | 0.01 | 0.01 | 49 | 1017.5 |
| 20260504001701 | 65 | 221 | 0.9 | 3.5 | 0.00 | 0.01 | 0.01 | 48 | 1017.4 |
| 20260504001030 | 66 | 222 | 1.7 | 3.5 | 0.00 | 0.01 | 0.01 | 48 | 1017.4 |
| 20260504000523 | 66 | 234 | 1.7 | 4.3 | 0.00 | 0.01 | 0.01 | 47 | 1017.3 |
| 20260504000153 | 66 | 236 | 1.7 | 4.3 | 0.00 | 0.01 | 0.01 | 47 | 1017.2 |
| 20260503235542 | 67 | 234 | 1.7 | 4.3 | 0.00 | 0.01 | 0.01 | 46 | 1017.3 |
| 20260503235033 | 67 | 233 | 1.7 | 4.3 | 0.00 | 0.01 | 0.01 | 46 | 1017.2 |
| 20260503234630 | 67 | 238 | 1.7 | 7.0 | 0.00 | 0.01 | 0.01 | 45 | 1017.4 |
| 20260503234025 | 68 | 225 | 2.6 | 7.0 | 0.00 | 0.01 | 0.01 | 45 | 1017.2 |
| 20260503233525 | 68 | 203 | 1.7 | 6.1 | 0.00 | 0.01 | 0.01 | 44 | 1017.4 |
| 20260503233200 | 68 | 207 | 1.7 | 7.0 | 0.00 | 0.01 | 0.01 | 44 | 1017.2 |
| 20260503232530 | 68 | 223 | 1.7 | 7.8 | 0.00 | 0.01 | 0.01 | 43 | 1017.2 |
| 20260503232025 | 69 | 236 | 3.5 | 8.7 | 0.00 | 0.01 | 0.01 | 42 | 1017.4 |
| 20260503231635 | 69 | 253 | 3.5 | 8.7 | 0.00 | 0.01 | 0.01 | 41 | 1017.3 |
| 20260503231038 | 69 | 215 | 3.5 | 8.7 | 0.00 | 0.01 | 0.01 | 41 | 1017.4 |
| 20260503230532 | 69 | 246 | 3.5 | 8.7 | 0.00 | 0.01 | 0.01 | 41 | 1017.5 |
| 20260503230241 | 69 | 234 | 1.7 | 7.0 | 0.00 | 0.01 | 0.01 | 42 | 1017.4 |
| 20260503225528 | 69 | 287 | 2.6 | 7.8 | 0.00 | 0.03 | 0.01 | 42 | 1017.5 |
| 20260503225026 | 69 | 206 | 3.5 | 7.8 | 0.00 | 0.03 | 0.01 | 41 | 1017.3 |
| 20260503224658 | 70 | 232 | 3.5 | 7.8 | 0.00 | 0.03 | 0.01 | 41 | 1017.4 |
| 20260503224027 | 70 | 206 | 2.6 | 8.7 | 0.00 | 0.03 | 0.01 | 40 | 1017.4 |
| 20260503223536 | 70 | 256 | 3.5 | 8.7 | 0.00 | 0.03 | 0.01 | 41 | 1017.4 |
| 20260503223220 | 70 | 294 | 2.6 | 7.0 | 0.00 | 0.03 | 0.01 | 41 | 1017.6 |
| 20260503222531 | 70 | 242 | 3.5 | 7.0 | 0.00 | 0.03 | 0.01 | 41 | 1017.4 |
| 20260503222036 | 70 | 249 | 2.6 | 8.7 | 0.00 | 0.03 | 0.01 | 41 | 1017.5 |
| 20260503221712 | 70 | 227 | 3.5 | 8.7 | 0.00 | 0.03 | 0.01 | 41 | 1017.6 |
| 20260503221033 | 70 | 245 | 3.5 | 7.8 | 0.00 | 0.03 | 0.01 | 43 | 1017.4 |
| 20260503220533 | 70 | 229 | 3.5 | 7.8 | 0.00 | 0.03 | 0.01 | 42 | 1017.5 |
| 20260503220214 | 70 | 233 | 2.6 | 7.8 | 0.00 | 0.03 | 0.01 | 42 | 1017.4 |
| 20260503215523 | 70 | 222 | 2.6 | 7.8 | 0.00 | 0.03 | 0.01 | 43 | 1017.7 |
| 20260503215022 | 70 | 223 | 2.6 | 7.8 | 0.00 | 0.03 | 0.01 | 43 | 1017.7 |
| 20260503214718 | 70 | 269 | 3.5 | 8.7 | 0.00 | 0.03 | 0.01 | 43 | 1017.6 |
| 20260503214047 | 70 | 246 | 3.5 | 9.6 | 0.00 | 0.03 | 0.01 | 44 | 1017.8 |
| 20260503213542 | 70 | 281 | 3.5 | 8.7 | 0.00 | 0.03 | 0.01 | 44 | 1017.9 |
| 20260503213216 | 70 | 214 | 3.5 | 7.0 | 0.00 | 0.03 | 0.01 | 44 | 1018.0 |
| 20260503212539 | 70 | 229 | 3.5 | 6.1 | 0.00 | 0.03 | 0.01 | 43 | 1018.0 |
| 20260503212028 | 70 | 289 | 3.5 | 7.8 | 0.00 | 0.03 | 0.01 | 43 | 1017.9 |
| 20260503211710 | 70 | 192 | 1.7 | 7.8 | 0.00 | 0.03 | 0.01 | 46 | 1017.9 |
| 20260503211024 | 70 | 309 | 3.5 | 7.0 | 0.00 | 0.03 | 0.01 | 41 | 1018.1 |
| 20260503210528 | 70 | 273 | 2.6 | 5.2 | 0.00 | 0.03 | 0.01 | 43 | 1018.1 |
| 20260503210208 | 70 | 235 | 1.7 | 7.0 | 0.00 | 0.03 | 0.01 | 45 | 1018.1 |
| 20260503205524 | 69 | 246 | 2.6 | 6.1 | 0.00 | 0.03 | 0.01 | 44 | 1018.3 |
| 20260503205032 | 69 | 288 | 3.5 | 7.8 | 0.00 | 0.03 | 0.01 | 42 | 1018.3 |
| 20260503204718 | 69 | 261 | 3.5 | 7.8 | 0.00 | 0.03 | 0.01 | 43 | 1018.2 |
| 20260503204027 | 69 | 286 | 2.6 | 9.6 | 0.00 | 0.03 | 0.01 | 44 | 1018.5 |
| 20260503203543 | 69 | 284 | 3.5 | 9.6 | 0.00 | 0.03 | 0.01 | 41 | 1018.4 |
| 20260503203221 | 69 | 288 | 1.7 | 9.6 | 0.00 | 0.03 | 0.01 | 44 | 1018.4 |
| 20260503202546 | 69 | 293 | 5.2 | 9.6 | 0.00 | 0.03 | 0.01 | 45 | 1018.6 |
| 20260503202040 | 69 | 277 | 3.5 | 7.8 | 0.00 | 0.03 | 0.01 | 45 | 1018.7 |
| 20260503201722 | 69 | 302 | 2.6 | 7.8 | 0.00 | 0.03 | 0.01 | 43 | 1018.9 |
| 20260503201045 | 69 | 217 | 3.5 | 7.8 | 0.00 | 0.03 | 0.01 | 43 | 1019.0 |
| 20260503200529 | 69 | 254 | 4.3 | 10.4 | 0.00 | 0.03 | 0.01 | 45 | 1019.2 |
| 20260503200159 | 69 | 305 | 5.2 | 10.4 | 0.00 | 0.03 | 0.01 | 45 | 1019.4 |
| 20260503195542 | 69 | 297 | 3.5 | 7.8 | 0.00 | 0.03 | 0.01 | 45 | 1019.4 |
| 20260503195039 | 68 | 185 | 2.6 | 7.8 | 0.00 | 0.03 | 0.01 | 45 | 1019.6 |
| 20260503194700 | 68 | 203 | 4.3 | 9.6 | 0.00 | 0.03 | 0.01 | 44 | 1019.7 |
| 20260503194026 | 68 | 212 | 4.3 | 9.6 | 0.00 | 0.03 | 0.01 | 45 | 1019.7 |
| 20260503193526 | 68 | 202 | 1.7 | 10.4 | 0.00 | 0.03 | 0.01 | 44 | 1019.7 |
| 20260503193141 | 67 | 46 | 1.7 | 10.4 | 0.00 | 0.03 | 0.01 | 46 | 1019.9 |
| 20260503192525 | 67 | 313 | 4.3 | 11.3 | 0.00 | 0.03 | 0.01 | 44 | 1020.2 |
| 20260503192027 | 67 | 346 | 4.3 | 8.7 | 0.00 | 0.03 | 0.01 | 48 | 1020.2 |
| 20260503191636 | 67 | 200 | 5.2 | 8.7 | 0.00 | 0.03 | 0.01 | 48 | 1020.2 |
| 20260503191026 | 67 | 189 | 2.6 | 7.0 | 0.00 | 0.03 | 0.01 | 45 | 1020.3 |
| 20260503190538 | 67 | 276 | 1.7 | 7.8 | 0.00 | 0.03 | 0.01 | 42 | 1020.3 |
| 20260503190155 | 67 | 302 | 3.5 | 7.0 | 0.00 | 0.03 | 0.01 | 45 | 1020.5 |
| 20260503185540 | 66 | 250 | 3.5 | 7.0 | 0.00 | 0.03 | 0.01 | 43 | 1020.3 |
| 20260503185029 | 66 | 192 | 2.6 | 6.1 | 0.00 | 0.03 | 0.01 | 45 | 1020.6 |
| 20260503184653 | 66 | 238 | 2.6 | 8.7 | 0.00 | 0.03 | 0.01 | 45 | 1020.6 |
| 20260503184021 | 66 | 22 | 3.5 | 8.7 | 0.00 | 0.03 | 0.01 | 48 | 1020.6 |
| 20260503183525 | 66 | 305 | 1.7 | 5.2 | 0.00 | 0.03 | 0.01 | 44 | 1020.8 |
| 20260503183150 | 66 | 311 | 2.6 | 5.2 | 0.00 | 0.03 | 0.01 | 44 | 1020.7 |
| 20260503182524 | 65 | 301 | 0.9 | 4.3 | 0.00 | 0.03 | 0.01 | 43 | 1020.8 |
| 20260503182034 | 65 | 351 | 2.6 | 7.0 | 0.00 | 0.03 | 0.01 | 47 | 1020.8 |
| 20260503181645 | 65 | 342 | 3.5 | 8.7 | 0.00 | 0.03 | 0.01 | 43 | 1020.8 |
| 20260503181025 | 65 | 301 | 4.3 | 9.6 | 0.00 | 0.03 | 0.01 | 46 | 1020.8 |
| 20260503180540 | 65 | 345 | 4.3 | 9.6 | 0.00 | 0.03 | 0.01 | 43 | 1020.8 |
| 20260503180154 | 65 | 294 | 5.2 | 9.6 | 0.00 | 0.03 | 0.01 | 54 | 1020.8 |
| 20260503175526 | 65 | 316 | 2.6 | 7.0 | 0.00 | 0.03 | 0.01 | 53 | 1020.9 |
| 20260503175022 | 64 | 174 | 0.9 | 5.2 | 0.00 | 0.03 | 0.01 | 53 | 1020.9 |
| 20260503174624 | 64 | 317 | 1.7 | 7.0 | 0.00 | 0.03 | 0.01 | 55 | 1020.9 |
| 20260503174030 | 64 | 310 | 2.6 | 7.8 | 0.00 | 0.03 | 0.01 | 55 | 1021.0 |
| 20260503173535 | 64 | 315 | 3.5 | 7.8 | 0.00 | 0.03 | 0.01 | 56 | 1021.1 |
| 20260503173209 | 64 | 201 | 0.9 | 7.8 | 0.00 | 0.03 | 0.01 | 57 | 1020.9 |
| 20260503172526 | 64 | 261 | 4.3 | 7.8 | 0.00 | 0.03 | 0.01 | 61 | 1021.2 |
| 20260503172039 | 64 | 265 | 3.5 | 7.0 | 0.00 | 0.03 | 0.01 | 61 | 1021.1 |
| 20260503171645 | 63 | 308 | 1.7 | 6.1 | 0.00 | 0.03 | 0.01 | 59 | 1021.3 |
| 20260503171022 | 63 | 288 | 1.7 | 7.0 | 0.00 | 0.03 | 0.01 | 56 | 1021.5 |
| 20260503170539 | 63 | 222 | 2.6 | 7.0 | 0.00 | 0.03 | 0.01 | 57 | 1021.5 |
| 20260503170136 | 62 | 289 | 2.6 | 7.0 | 0.00 | 0.03 | 0.01 | 56 | 1021.8 |
| 20260503160159 | 61 | 286 | 1.7 | 5.2 | 0.00 | 0.03 | 0.01 | 66 | 1022.4 |
| 20260503150533 | 58 | 161 | 1.7 | 4.3 | 0.00 | 0.03 | 0.01 | 69 | 1022.7 |
| 20260503150149 | 58 | 198 | 1.7 | 5.2 | 0.00 | 0.03 | 0.01 | 71 | 1022.6 |
| 20260503140158 | 56 | 88 | 0.9 | 2.6 | 0.00 | 0.03 | 0.01 | 77 | 1022.4 |
| 20260503131025 | 53 | 113 | 0.9 | 3.5 | 0.00 | 0.03 | 0.01 | 85 | 1022.2 |
| 20260503130545 | 53 | 113 | 0.9 | 3.5 | 0.00 | 0.03 | 0.01 | 86 | 1022.4 |
| 20260503130149 | 52 | 113 | 0.9 | 3.5 | 0.00 | 0.03 | 0.01 | 88 | 1022.3 |
| 20260503120148 | 47 | 55 | 0.0 | 1.7 | 0.00 | 0.03 | 0.01 | 99 | 1022.0 |
| 20260503110535 | 43 | 55 | 0.0 | 0.0 | 0.00 | 0.03 | 0.01 | 98 | 1021.1 |
| 20260503110145 | 43 | 55 | 0.0 | 0.0 | 0.00 | 0.03 | 0.01 | 97 | 1020.9 |
| 20260503100118 | 43 | 285 | 0.0 | 0.9 | 0.00 | 0.03 | 0.01 | 97 | 1020.1 |
| 20260503090109 | 43 | 285 | 0.0 | 0.9 | 0.00 | 0.03 | 0.01 | 97 | 1019.6 |
| 20260503081610 | 43 | 285 | 0.0 | 0.0 | 0.00 | 0.03 | 0.01 | 96 | 1019.2 |
| 20260503081022 | 43 | 285 | 0.0 | 0.9 | 0.00 | 0.03 | 0.01 | 95 | 1019.1 |
| 20260503080546 | 44 | 285 | 0.0 | 0.9 | 0.00 | 0.03 | 0.01 | 95 | 1019.1 |
| 20260503080144 | 44 | 285 | 0.9 | 1.7 | 0.00 | 0.03 | 0.01 | 95 | 1019.2 |
| 20260503072535 | 44 | 285 | 0.0 | 1.7 | 0.00 | 0.03 | 0.01 | 95 | 1018.8 |